sat.trackr.live / text

‹ back to catalog

UNKNOWN

NORAD 85434

UNKNOWN UNKNOWN UNKNOWN

§ Identity

Operator
Country
Launch date
Launch site
Launch vehicle
Mass (kg)
RCS (m²)

External: N2YO · Heavens-Above

§ Orbital elements

Epoch: 2026-05-07T03:29:59.999712Z

Period
717.85 min
Inclination
54.9920°
Eccentricity
0.0002620
Mean motion
2.00599881 rev/d
Perigee alt
20,172.1 km
Apogee alt
20,186.0 km
Semi-major
26,557.1 km
B*
0.0000e+0
RAAN
209.4130°
Arg perigee
267.5690°
Mean anomaly
175.2310°
Rev number
1

§ Raw data

UNKNOWN1 85434U          26127.14583333  .00000007  00000+0  00000+0 0  99972 85434  54.9920 209.4130 0002620 267.5690 175.2310  2.00599881    11

JSON: /api/v1/satellites/85434 · /tle

For live sub-satellite position, see the globe view (requires WebGL).

§ Visibility from observer

Set your observer location to see the next 7 days of passes ≥ 10°. The values pass through the URL so the page stays shareable.

No JS? Fill the form by hand. The geolocation button needs JavaScript.